Volver al catálogo

INMARSAT 2-F1

ActivoComunicacionesGEO
NORAD 20918·PAYLOAD·🇮🇲 IM

Lanzado Oct 30, 1990 desde Cape Canaveral Space Force Station

Loading…

TLE

ActualizadoSource: Space-Track

Época: Sep 14, 2026, 01:46 UTC

1 20918U 90093A   26257.07392340 -.00000238  00000-0  00000-0 0  9995
2 20918  13.0792   5.8151 0005510   3.9440 358.7321  0.98879291 48403

Sigue INMARSAT 2-F1 en tiempo real con AllMySat

Download on the App Store